Yankton, SD

1:23 PM CDT on March 24, 2017 (GMT -0500)
Gurney Municipal

Weather History for KYKN - May, 2013

Change the Weather History Date:

Sunday, May 19, 2013

  Actual Average Record
Temperature  
Mean Temperature 63 °F -  
Max Temperature 69 °F 72 °F 91 °F (1970)
Min Temperature 57 °F 48 °F 34 °F (1968)
Degree Days  
Heating Degree Days 2    
Growing Degree Days 13 (Base 50)    
Moisture  
Dew Point 59 °F    
Average Humidity 86    
Maximum Humidity 100    
Minimum Humidity 64    
Precipitation  
Precipitation 0.49 in - - ()
Sea Level Pressure  
Sea Level Pressure 29.61 in    
Wind  
Wind Speed 6 mph (SSW)    
Max Wind Speed 13 mph    
Max Gust Speed 20 mph    
Visibility 10 miles    
Events Thunderstorm    
Averages and records for this station are not official NWS values.
T = Trace of Precipitation, MM = Missing Value Source: NWS Daily Summary

Daily Weather History Graph

Daily Weather History Graph

Search for Another Location

Airport or City:

Trip Planner

Search our weather history database for the weather conditions in past years. The results will help you decide how hot, cold, wet, or windy it might be!

Date:

Astronomy

May. 19, 2013 Rise Set
Actual Time 6:02 AM CDT 8:50 PM CDT
Civil Twilight 5:29 AM CDT 9:23 PM CDT
Nautical Twilight 4:47 AM CDT 10:05 PM CDT
Astronomical Twilight 3:59 AM CDT 10:53 PM CDT
Moon 2:47 PM CDT (5/19) 2:35 AM CDT (5/19)
Length of Visible Light 15h 54m
Length of Day
14h 47m
Waxing Gibbous, 65% of the Moon is Illuminated
May 19
Waxing Gibbous
May 24
Full
May 31
Last Quarter
Jun 8
New
Jun 16
First Quarter

Hourly Weather History & Observations

Time (CDT) Temp. Dew Point Humidity Pressure Visibility Wind Dir Wind Speed Gust Speed Precip Events Conditions
12:15 AM 62.6 °F 60.8 °F 94% 29.67 in 8.0 mi SSW 5.8 mph - 0.18 in Thunderstorm Thunderstorm
12:35 AM 64.4 °F 60.8 °F 88% 29.69 in 10.0 mi South 6.9 mph - 0.19 in Thunderstorm Overcast
12:55 AM 64.4 °F 60.8 °F 88% 29.70 in 10.0 mi West 3.5 mph - 0.20 in Thunderstorm Overcast
1:15 AM 62.6 °F 60.8 °F 94% 29.70 in 7.0 mi West 9.2 mph - N/A   Overcast
1:35 AM 62.6 °F 60.8 °F 94% 29.70 in 9.0 mi East 9.2 mph - 0.02 in   Overcast
1:55 AM 62.6 °F 60.8 °F 94% 29.69 in 10.0 mi Calm Calm - 0.03 in   Overcast
2:15 AM 62.6 °F 62.6 °F 100% 29.67 in 9.0 mi South 3.5 mph - N/A   Overcast
2:35 AM 62.6 °F 62.6 °F 100% 29.66 in 7.0 mi Calm Calm - N/A   Mostly Cloudy
2:55 AM 62.6 °F 60.8 °F 94% 29.66 in 7.0 mi ESE 10.4 mph - N/A   Mostly Cloudy
3:15 AM 62.6 °F 60.8 °F 94% 29.66 in 7.0 mi Calm Calm - N/A   Overcast
3:35 AM 62.6 °F 60.8 °F 94% 29.64 in 10.0 mi Calm Calm - N/A   Partly Cloudy
3:55 AM 62.6 °F 60.8 °F 94% 29.64 in 10.0 mi SW 4.6 mph - N/A   Clear
4:15 AM 62.6 °F 60.8 °F 94% 29.63 in 10.0 mi South 5.8 mph - N/A   Clear
4:35 AM 62.6 °F 60.8 °F 94% 29.61 in 10.0 mi SSE 4.6 mph - N/A   Clear
4:55 AM 62.6 °F 60.8 °F 94% 29.60 in 10.0 mi SSE 6.9 mph - N/A   Clear
5:15 AM 62.6 °F 60.8 °F 94% 29.62 in 10.0 mi SSW 6.9 mph - N/A   Clear
5:35 AM 62.6 °F 60.8 °F 94% 29.63 in 10.0 mi SW 8.1 mph - N/A   Clear
5:55 AM 62.6 °F 60.8 °F 94% 29.61 in 10.0 mi WSW 9.2 mph - N/A   Clear
6:15 AM 60.8 °F 57.2 °F 88% 29.61 in 10.0 mi WSW 12.7 mph - N/A   Clear
6:35 AM 60.8 °F 57.2 °F 88% 29.61 in 10.0 mi WSW 11.5 mph - N/A   Clear
7:15 AM 60.8 °F 55.4 °F 82% 29.61 in 10.0 mi West 9.2 mph - N/A   Clear
7:35 AM 60.8 °F 57.2 °F 88% 29.61 in 10.0 mi West 9.2 mph - N/A   Clear
7:55 AM 60.8 °F 57.2 °F 88% 29.63 in 10.0 mi West 12.7 mph - N/A   Clear
8:15 AM 62.6 °F 57.2 °F 82% 29.65 in 10.0 mi West 12.7 mph 18.4 mph N/A   Clear
8:35 AM 62.6 °F 57.2 °F 82% 29.68 in 10.0 mi SW 11.5 mph - N/A   Scattered Clouds
8:55 AM 62.6 °F 59.0 °F 88% 29.69 in 10.0 mi WSW 6.9 mph - N/A   Mostly Cloudy
9:15 AM 64.4 °F 57.2 °F 77% 29.66 in 10.0 mi West 11.5 mph - N/A   Scattered Clouds
9:55 AM 64.4 °F 57.2 °F 77% 29.66 in 10.0 mi WNW 9.2 mph - N/A   Scattered Clouds
10:15 AM 66.2 °F 59.0 °F 78% 29.67 in 10.0 mi WSW 5.8 mph - N/A   Mostly Cloudy
10:35 AM 64.4 °F 57.2 °F 77% 29.67 in 10.0 mi Calm Calm - N/A   Scattered Clouds
10:55 AM 66.2 °F 59.0 °F 78% 29.66 in 10.0 mi Calm Calm - N/A   Scattered Clouds
11:15 AM 66.2 °F 59.0 °F 78% 29.66 in 10.0 mi ESE 3.5 mph - N/A   Partly Cloudy
11:35 AM 66.2 °F 59.0 °F 78% 29.65 in 10.0 mi Calm Calm - N/A   Scattered Clouds
11:55 AM 66.2 °F 57.2 °F 73% 29.65 in 10.0 mi Calm Calm - N/A   Scattered Clouds
12:15 PM 66.2 °F 59.0 °F 78% 29.64 in 10.0 mi Calm Calm - N/A   Scattered Clouds
12:35 PM 66.2 °F 60.8 °F 83% 29.65 in 10.0 mi SE 4.6 mph - N/A   Mostly Cloudy
12:55 PM 68.0 °F 59.0 °F 73% 29.64 in 10.0 mi ESE 5.8 mph - N/A   Overcast
1:15 PM 66.2 °F 59.0 °F 78% 29.64 in 10.0 mi SE 4.6 mph - N/A   Overcast
1:35 PM 66.2 °F 60.8 °F 83% 29.64 in 10.0 mi South 4.6 mph - 0.01 in   Overcast
2:15 PM 64.4 °F 60.8 °F 88% 29.65 in 10.0 mi SSW 4.6 mph - 0.04 in   Overcast
2:35 PM 64.4 °F 60.8 °F 88% 29.64 in 9.0 mi East 6.9 mph - 0.06 in   Overcast
3:15 PM 64.4 °F 62.6 °F 94% 29.62 in 10.0 mi West 8.1 mph - N/A   Clear
3:35 PM 64.4 °F 62.6 °F 94% 29.65 in 10.0 mi SSW 6.9 mph - N/A   Mostly Cloudy
3:55 PM 66.2 °F 62.6 °F 88% 29.63 in 10.0 mi East 6.9 mph - N/A   Overcast
4:15 PM 66.2 °F 62.6 °F 88% 29.58 in 10.0 mi NE 11.5 mph - N/A   Mostly Cloudy
4:35 PM 66.2 °F 62.6 °F 88% 29.57 in 10.0 mi NW 4.6 mph - N/A   Partly Cloudy
4:55 PM 66.2 °F 62.6 °F 88% 29.55 in 10.0 mi NW 5.8 mph - N/A   Clear
5:15 PM 68.0 °F 62.6 °F 83% 29.54 in 10.0 mi NW 5.8 mph - N/A   Clear
5:35 PM 68.0 °F 62.6 °F 83% 29.55 in 10.0 mi Calm Calm - N/A   Clear
5:55 PM 69.8 °F 62.6 °F 78% 29.55 in 10.0 mi South 9.2 mph - N/A   Scattered Clouds
6:15 PM 69.8 °F 62.6 °F 78% 29.55 in 10.0 mi SSW 8.1 mph - N/A   Scattered Clouds
6:35 PM 69.8 °F 60.8 °F 73% 29.55 in 10.0 mi SSW 8.1 mph - N/A   Scattered Clouds
6:55 PM 69.8 °F 60.8 °F 73% 29.55 in 10.0 mi WSW 5.8 mph - N/A   Clear
7:15 PM 68.0 °F 55.4 °F 64% 29.53 in 10.0 mi SSE 4.6 mph - N/A   Clear
7:35 PM 68.0 °F 57.2 °F 68% 29.53 in 10.0 mi East 4.6 mph - N/A   Scattered Clouds
7:55 PM 66.2 °F 59.0 °F 78% 29.51 in 10.0 mi NE 4.6 mph - N/A   Partly Cloudy
8:15 PM 66.2 °F 60.8 °F 83% 29.53 in 10.0 mi NW 4.6 mph - N/A Thunderstorm Clear
8:35 PM 64.4 °F 57.2 °F 77% 29.52 in 10.0 mi South 10.4 mph 19.6 mph N/A Thunderstorm Thunderstorm
8:55 PM 60.8 °F 55.4 °F 82% 29.53 in 10.0 mi SSW 5.8 mph - 0.02 in Thunderstorm Thunderstorm
9:15 PM 60.8 °F 57.2 °F 88% 29.53 in 10.0 mi ESE 8.1 mph - 0.06 in Thunderstorm Thunderstorm
9:35 PM 59.0 °F 57.2 °F 94% 29.52 in 9.0 mi Calm Calm - 0.10 in   Mostly Cloudy
9:55 PM 60.8 °F 57.2 °F 88% 29.52 in 8.0 mi Calm Calm - 0.12 in   Mostly Cloudy
10:15 PM 59.0 °F 57.2 °F 94% 29.52 in 7.0 mi NE 6.9 mph - 0.03 in   Overcast
10:35 PM 59.0 °F 57.2 °F 94% 29.50 in 5.0 mi Calm Calm - 0.05 in   Mostly Cloudy
11:15 PM 57.2 °F 55.4 °F 94% 29.52 in 10.0 mi SSE 8.1 mph - N/A   Mostly Cloudy
11:35 PM 57.2 °F 55.4 °F 94% 29.52 in 10.0 mi SSW 8.1 mph - N/A   Mostly Cloudy
11:55 PM 57.2 °F 55.4 °F 94% 29.51 in 10.0 mi SSW 10.4 mph - N/A   Overcast